Dewpoint
53 55 55 56 57 57 57 57 58 58 58 58 58 57 56 55 55 55 55 56 56 56 55 55 55 56 56 55 55 55 55 55 55 56 56 57 58 58 59 59 59 59 59 59 58 58 58 58 59 59 60 61 61 61 62 62 61 61 61 61 61 61 60 60 59 59 58 58 57 57 56 56 56 56 56 56 56 56 57 57 57 58 58 58 58 58
53 53 54 55 55 56 56 56 57 57 58 58 58 57 57 56 55 55 55 55 56 56 55 55 55 55 55 55 55 55 55 55 55 56 56 57 57 58 59 59 59 59 59 58 58 58 58 58 58 59 60 60 60 60 60 60 60 60 60 60 60 60 60 60 59 58 58 57 57 56 56 56 55 55 56 56 56 57 57 57 58 58 58 59 59 59
52 53 53 54 55 55 55 56 56 57 57 57 57 57 57 57 56 56 55 55 55 55 55 55 55 55 55 55 55 55 55 55 56 56 56 57 57 58 58 58 58 58 58 58 58 58 57 58 58 59 59 60 60 59 59 59 59 59 59 59 59 59 59 58 58 58 57 57 56 56 55 55 55 55 56 56 56 57 57 58 58 58 58 59 59 59
52 52 53 54 55 55 55 55 56 56 57 57 57 57 57 57 57 57 56 55 55 55 55 55 55 55 55 55 55 55 55 56 56 56 56 57 57 58 58 58 58 58 58 58 57 57 57 57 58 59 59 59 59 58 58 58 57 57 57 57 57 57 57 57 57 56 56 56 55 55 55 55 55 56 56 57 57 57 58 58 58 58 58 59 59 59
52 53 53 54 54 55 55 55 55 56 56 57 57 57 57 57 57 57 57 57 56 56 55 55 55 55 55 55 55 55 55 56 56 56 56 57 57 57 58 58 58 58 58 57 57 57 57 57 58 58 59 58 58 58 57 57 56 56 56 56 56 56 55 55 55 55 55 55 55 54 55 55 56 56 56 57 57 57 58 58 58 58 58 59 59 59
51 53 54 54 55 55 55 55 55 56 56 56 56 57 56 57 57 57 57 57 57 57 57 56 56 56 56 56 55 55 55 55 55 56 56 56 57 57 57 57 57 57 57 57 57 57 57 57 58 58 58 58 58 57 56 56 56 55 55 55 55 55 55 55 55 54 54 54 54 54 55 55 55 56 56 57 57 57 58 58 58 58 58 58 59 59
50 52 54 54 55 55 55 55 55 55 55 55 55 56 56 56 56 57 57 57 57 57 57 57 56 57 57 56 55 55 55 55 55 55 56 56 56 56 57 57 57 57 57 57 57 57 57 57 58 58 58 58 57 57 56 55 55 55 55 55 54 54 54 54 54 54 54 54 54 54 55 55 55 55 56 56 57 57 57 57 58 58 58 58 59 59
49 51 52 53 53 54 54 54 55 55 55 55 55 55 55 55 55 56 56 57 57 57 56 56 56 56 56 56 56 55 56 56 56 56 56 56 56 56 56 56 57 57 57 57 57 57 57 57 58 58 58 57 57 56 56 55 55 54 54 54 54 54 54 54 54 54 54 54 54 54 55 55 55 55 55 55 56 56 57 57 57 58 58 58 58 58
49 49 50 51 52 52 53 53 54 55 55 55 55 55 55 55 55 55 55 55 56 56 56 55 55 55 56 56 56 56 56 56 57 57 56 56 56 56 56 56 57 57 57 57 57 57 57 57 57 57 57 57 56 56 55 55 54 54 53 53 53 53 53 54 54 54 54 54 54 54 55 55 55 55 55 55 55 55 56 56 57 57 57 58 58 58
50 49 49 51 52 52 52 52 53 54 55 55 55 55 54 54 54 54 54 54 55 55 55 55 55 55 55 55 56 56 56 56 56 56 56 56 56 56 56 56 57 57 57 57 57 57 57 57 57 57 57 56 56 55 55 54 54 53 53 53 53 53 53 53 54 54 54 54 54 54 55 55 55 55 54 54 54 55 55 55 56 56 57 57 57 58
50 50 50 51 51 52 53 52 53 54 55 55 55 55 55 55 54 53 53 53 53 53 54 55 55 55 55 55 55 55 56 56 56 56 56 55 55 55 55 55 56 56 56 57 57 57 57 57 57 56 56 56 55 55 54 53 53 52 52 52 53 53 53 53 53 54 54 54 54 54 55 55 54 54 54 54 54 54 54 55 55 55 56 56 57 57
50 50 50 50 51 52 52 53 53 54 54 54 54 54 54 55 55 54 53 52 52 52 53 54 55 55 55 54 55 55 55 55 56 56 56 55 55 55 55 56 56 56 56 57 56 56 56 56 56 56 55 55 55 54 53 53 52 52 52 52 52 53 53 53 53 53 53 54 54 54 54 54 54 54 54 54 54 54 54 54 54 54 55 55 56 57
50 50 49 50 51 51 51 52 52 52 52 53 53 53 53 54 54 54 53 53 52 52 52 52 53 54 54 54 55 55 55 55 55 55 55 56 56 56 56 57 57 57 57 57 57 57 56 55 55 55 55 55 54 53 53 52 52 52 52 52 52 53 53 53 53 53 53 53 54 54 54 54 54 54 54 54 53 53 53 53 53 53 54 55 55 56
50 50 49 50 51 51 51 51 51 51 51 52 52 53 53 53 54 54 54 53 52 51 51 51 51 51 49 51 54 55 55 55 55 55 55 55 56 56 57 57 57 57 57 57 57 57 56 56 56 55 55 54 54 53 52 52 52 52 52 52 52 53 53 53 53 53 53 53 53 54 54 54 54 54 54 53 53 53 53 53 53 53 53 54 55 55
50 50 49 49 49 50 51 51 51 51 51 52 53 53 54 53 53 53 53 53 51 51 50 50 49 47 44 45 48 52 55 55 54 54 54 55 55 56 56 56 56 56 56 56 56 56 56 56 56 56 55 55 54 53 52 52 52 52 52 52 52 52 53 53 53 53 53 53 53 53 53 53 53 53 53 53 53 53 52 52 52 52 53 53 54 55
50 50 49 48 48 49 50 51 51 51 51 52 53 53 53 52 52 52 52 52 51 49 49 49 47 46 45 43 43 46 52 54 54 54 53 54 55 55 56 55 55 55 55 55 56 56 56 56 56 56 55 54 53 52 52 52 52 52 52 52 52 52 52 52 52 52 53 53 53 53 53 53 53 53 53 53 52 52 52 51 51 52 52 52 53 54
50 50 50 49 48 48 49 50 51 51 51 51 52 53 53 52 52 52 52 51 50 48 48 48 47 47 46 45 44 45 48 53 54 53 53 53 53 54 55 55 55 54 54 55 55 55 55 55 55 55 55 54 52 52 52 52 52 52 52 52 52 52 52 52 52 52 52 52 52 52 52 52 52 52 52 52 51 51 51 51 51 51 51 51 51 52
50 50 50 49 49 48 49 50 51 51 51 51 52 52 53 52 52 52 52 51 50 49 48 49 49 48 48 47 47 46 46 52 54 53 52 52 52 52 54 55 55 54 54 54 54 55 55 55 55 54 54 53 52 51 51 52 52 52 52 52 52 52 52 52 52 52 52 52 52 52 52 52 52 51 51 51 51 51 50 50 50 50 50 50 50 51
49 50 50 50 49 49 49 50 51 51 51 51 51 52 52 52 52 51 51 51 50 49 49 49 49 49 49 49 49 47 46 51 53 53 52 51 51 51 52 53 54 54 53 53 54 54 54 54 54 53 53 52 51 51 51 51 51 52 52 52 51 51 51 51 52 52 52 52 52 52 52 51 51 51 51 51 50 50 50 50 50 50 50 50 50 50
48 50 51 50 50 49 49 50 51 51 51 51 51 51 51 51 51 51 51 51 50 50 49 49 49 50 50 50 49 47 46 50 52 53 52 51 50 50 51 52 53 53 53 53 53 53 53 54 53 52 51 51 51 51 51 51 51 51 51 51 51 51 51 51 51 51 52 52 51 51 51 51 51 51 50 50 50 50 50 50 50 49 49 49 49 49
47 49 51 51 51 50 49 50 51 51 51 51 51 51 51 51 50 51 51 51 50 50 50 50 50 50 51 51 49 47 47 49 51 52 52 51 49 49 49 51 52 52 52 52 52 52 53 53 53 52 52 51 51 51 51 51 51 51 51 51 51 51 51 51 51 51 51 51 51 51 51 51 50 50 50 49 49 49 49 49 49 49 49 49 49 49
47 49 51 52 51 51 50 51 51 51 51 51 51 50 50 50 50 50 50 50 50 50 50 50 50 51 51 50 48 47 48 50 51 52 52 50 48 48 48 50 51 51 51 51 51 52 52 52 52 52 52 51 51 51 51 51 51 51 51 51 51 51 51 51 51 51 51 51 51 51 51 50 50 50 49 49 49 49 49 49 49 49 49 48 48 48
48 50 51 52 52 52 51 51 51 51 51 51 51 51 50 50 50 50 50 50 50 50 50 50 50 49 49 48 47 47 48 50 52 53 52 49 48 47 47 48 49 51 51 51 51 51 51 51 52 52 52 51 51 51 51 51 51 51 51 51 51 51 51 51 51 51 51 51 51 50 50 50 49 49 49 49 48 48 48 48 48 48 48 48 47 47
48 50 51 52 53 53 52 52 52 52 52 52 51 51 51 51 50 50 51 51 51 50 50 49 48 46 45 46 46 46 47 50 51 52 52 50 49 47 46 47 48 49 50 50 50 50 51 51 51 51 51 51 51 51 51 51 51 51 51 51 51 51 51 51 51 51 50 50 50 50 50 49 49 48 48 48 48 48 47 47 47 47 47 46 46 46
47 49 51 52 53 53 53 52 52 52 52 52 52 51 51 51 51 51 51 51 51 51 50 49 47 46 44 45 45 46 47 49 51 51 52 51 49 46 46 46 48 48 48 47 48 49 50 50 50 51 51 51 51 51 51 51 51 51 51 51 51 51 51 50 50 50 50 50 50 49 49 49 48 48 48 47 47 47 46 46 46 46 46 46 46 45
46 47 49 51 51 52 52 52 51 51 51 52 52 52 52 51 51 51 51 51 50 50 49 47 47 46 45 44 45 46 46 48 50 51 52 51 48 46 45 46 47 48 46 46 46 48 49 49 49 50 51 51 51 50 50 50 50 51 51 51 51 50 50 50 50 50 50 49 49 49 48 48 48 47 47 47 47 46 46 46 46 45 45 45 45 45
44 45 46 47 49 51 51 51 51 51 51 51 52 52 52 51 51 50 50 50 49 49 47 47 46 46 44 44 45 45 46 47 49 50 51 50 48 46 45 46 47 46 45 44 45 46 48 48 49 49 50 50 51 51 50 50 50 50 50 50 50 50 50 50 50 50 49 49 49 48 48 48 47 47 47 46 46 46 46 45 45 45 44 44 44 44
44 45 46 46 48 50 51 51 51 51 51 51 51 51 52 51 50 49 49 49 49 48 47 47 46 46 44 44 45 45 46 47 48 49 50 50 48 46 45 46 46 45 44 43 43 43 45 45 46 47 49 50 50 50 50 50 50 50 50 50 50 50 50 50 50 49 49 49 48 48 48 47 47 47 46 46 46 46 45 45 45 44 44 43 43 43
45 46 46 47 48 49 50 51 51 51 51 51 51 51 51 51 51 50 49 49 49 48 47 47 47 46 45 45 45 45 45 46 48 49 49 49 48 46 45 45 45 44 42 41 40 39 39 38 38 41 45 48 50 50 50 50 50 50 50 50 50 50 50 49 49 49 49 48 48 48 47 47 47 47 46 46 46 45 45 45 44 44 43 42 42 42
45 46 48 48 49 50 51 51 51 51 51 51 51 51 51 52 51 51 51 50 49 48 48 48 47 47 46 45 44 44 44 46 47 49 49 48 47 46 44 44 44 43 42 42 41 40 38 36 35 35 38 44 48 50 50 50 50 50 50 50 50 50 49 49 49 48 48 48 48 47 47 47 47 46 46 46 45 45 45 44 44 43 42 42 42 42
43 45 48 50 51 51 51 52 52 52 51 51 51 51 52 52 52 51 51 51 50 49 48 48 48 47 46 45 44 43 44 45 47 49 49 49 47 45 43 43 43 43 43 43 43 42 40 38 36 35 35 40 45 49 49 49 50 50 50 50 49 49 49 48 48 48 48 48 47 47 47 47 46 46 46 45 45 45 44 44 43 42 41 41 41 41
42 43 46 49 51 51 51 52 52 52 52 51 51 51 52 52 52 52 51 51 50 49 49 48 48 48 47 46 45 44 44 45 47 48 49 49 47 45 43 43 43 43 44 45 46 45 43 41 38 36 34 37 42 47 49 49 49 49 49 49 49 48 48 48 48 47 47 47 47 47 47 46 46 46 46 45 45 44 44 43 43 42 40 40 40 40
41 43 46 49 51 51 51 52 52 52 52 51 51 52 52 52 52 52 52 51 51 50 49 49 49 48 47 46 46 46 46 46 47 48 49 49 47 45 43 43 43 43 44 45 46 46 45 43 40 37 35 36 39 44 48 48 49 49 49 48 48 48 48 48 48 47 47 47 47 47 46 46 46 46 45 45 45 44 44 43 42 42 40 40 40 40
41 42 44 48 50 51 51 51 52 52 52 51 51 51 52 52 52 52 52 51 51 50 50 50 50 49 48 47 46 46 46 46 47 48 49 48 46 44 43 43 43 43 43 44 45 44 43 42 41 39 37 37 37 40 45 47 48 48 48 48 47 47 47 47 47 47 47 47 47 46 46 46 46 46 45 45 44 44 43 43 42 42 41 40 40 40
40 42 44 47 50 51 51 51 51 51 51 51 51 51 52 52 52 52 52 52 51 51 50 51 50 50 48 47 47 46 47 46 47 48 49 48 46 45 43 43 43 43 44 44 44 42 41 41 41 41 40 39 37 37 39 43 46 47 48 48 47 47 47 47 47 46 46 46 46 46 46 46 46 46 45 44 44 44 43 43 42 42 42 41 41 40
40 41 43 47 50 51 51 51 51 51 51 51 51 51 51 52 52 52 52 52 51 51 51 51 51 50 49 48 47 47 47 46 47 47 48 48 47 45 44 44 44 44 44 44 43 42 41 41 41 42 41 40 39 37 36 38 42 46 47 47 47 47 47 47 46 46 46 46 45 45 45 45 45 45 44 44 44 44 43 43 43 43 42 42 42 41
39 41 43 47 50 51 51 51 51 50 51 51 51 51 51 52 52 52 52 52 51 51 51 51 51 51 50 50 49 48 48 47 47 47 48 48 47 46 44 44 44 44 44 44 44 42 41 41 41 41 42 41 40 39 37 38 41 45 46 46 46 46 46 46 46 46 45 45 44 44 44 44 44 44 44 44 44 44 44 44 43 43 43 42 42 42
40 42 44 47 50 51 51 51 50 50 51 51 51 51 51 52 52 52 52 51 50 50 51 51 51 51 50 50 50 49 49 47 47 47 48 48 47 46 45 45 45 45 45 45 44 43 42 41 41 41 41 41 41 41 40 41 42 43 44 44 44 44 45 45 45 45 45 44 44 44 44 44 44 44 44 44 44 44 44 44 44 44 43 42 42 42
41 42 45 48 50 51 51 51 50 50 51 51 51 51 51 51 51 51 51 50 49 49 51 51 51 50 46 46 47 48 47 46 46 46 46 46 47 47 46 45 45 45 46 46 45 44 43 42 42 41 41 41 40 40 40 42 42 42 42 41 41 42 42 44 44 44 44 43 43 43 43 43 43 43 43 43 43 42 42 42 42 43 42 42 41 41
42 44 46 48 51 51 51 51 51 51 51 51 51 51 51 51 51 51 50 51 51 51 51 51 50 48 46 47 47 47 46 44 44 45 44 43 45 46 47 46 45 45 46 46 45 44 44 43 43 42 42 41 40 39 40 41 42 41 40 39 38 38 40 42 42 42 42 42 42 42 41 41 41 42 42 42 41 41 40 40 40 40 40 39 38 38
44 46 47 50 51 52 52 51 51 51 51 51 51 51 51 51 51 50 49 50 50 50 50 49 48 47 46 46 47 47 46 44 45 45 43 41 43 46 47 46 46 46 46 46 45 45 45 44 44 43 42 41 40 39 40 40 41 41 40 40 38 37 39 40 41 41 41 41 41 40 40 40 40 40 40 40 39 38 38 38 38 38 38 37 36 36
44 46 49 51 52 52 52 52 51 51 51 51 51 51 51 50 50 49 48 48 48 48 48 48 47 46 45 44 45 46 46 46 45 44 42 41 42 45 47 47 46 46 46 45 45 45 45 45 44 43 42 41 40 39 39 39 40 40 41 39 38 37 37 38 38 39 39 39 39 39 40 39 38 38 38 37 36 35 36 36 37 37 36 34 33 33
43 47 50 52 52 53 52 52 51 51 51 51 50 50 50 50 49 48 47 47 47 47 47 47 46 46 44 43 42 43 45 46 46 45 44 42 42 45 48 47 47 46 46 45 45 45 45 45 44 43 42 41 40 39 38 38 39 40 40 38 37 36 35 34 35 37 37 38 38 38 38 37 37 36 35 34 33 33 34 36 37 37 35 32 30 29
42 47 51 52 52 52 52 51 51 51 50 50 50 50 50 49 49 48 47 47 47 46 46 46 46 46 44 42 42 41 42 43 44 45 45 44 44 45 47 47 47 46 46 45 45 44 44 44 43 42 42 41 41 40 38 38 38 38 38 37 37 37 36 35 35 35 36 36 36 36 36 35 34 33 32 32 32 32 32 32 32 32 31 28 27 26
42 46 51 51 52 51 51 51 50 50 50 50 49 49 49 49 48 48 47 47 46 46 46 46 46 45 42 41 41 40 40 41 42 42 43 44 44 44 46 46 46 46 46 46 45 45 44 42 42 41 41 41 40 39 38 38 37 37 37 37 37 37 36 35 35 35 35 35 34 34 33 33 32 31 30 30 30 30 30 30 29 28 27 26 26 26
41 45 50 51 51 51 50 50 49 49 49 49 49 49 48 48 48 48 47 46 46 46 46 46 45 44 42 41 41 40 40 40 40 41 41 42 43 44 45 46 46 46 46 46 46 45 44 42 41 40 40 40 39 39 38 38 37 37 36 37 36 34 33 34 34 34 34 33 33 32 32 32 32 31 30 29 28 28 28 28 28 27 26 25 26 26
38 42 47 50 51 50 50 49 49 49 48 48 48 48 48 47 47 47 47 46 46 45 45 45 45 44 43 42 41 40 39 39 39 40 40 41 41 42 42 42 43 44 44 44 44 43 43 42 42 41 40 39 38 37 37 37 37 36 35 34 33 33 32 32 33 33 33 32 31 31 32 32 32 31 29 28 27 27 27 26 26 25 25 25 25 26
36 39 44 48 49 49 49 48 48 48 47 47 47 47 47 47 46 46 46 46 45 45 44 44 44 43 42 41 40 40 40 39 39 39 39 39 39 39 39 39 39 40 40 40 40 40 40 40 40 40 40 39 38 37 36 37 36 35 34 34 33 33 32 31 31 31 31 31 31 31 32 33 32 30 28 28 27 26 26 25 25 24 24 25 25 25
35 37 40 45 47 48 48 47 47 47 47 46 46 46 46 46 46 46 45 45 45 44 44 43 43 42 42 41 40 40 40 40 39 38 38 37 37 37 37 37 37 37 37 37 37 37 37 37 37 37 38 39 38 37 36 35 35 34 34 33 33 32 31 30 30 30 29 30 30 32 33 33 32 31 29 28 27 26 25 25 24 24 23 24 24 25
35 35 37 41 45 46 47 47 47 46 46 46 45 45 45 45 45 45 45 45 44 44 44 43 42 42 41 40 40 40 40 39 38 38 37 37 37 37 37 37 37 36 36 35 35 35 35 34 35 36 37 38 38 37 36 34 34 33 33 33 33 32 30 29 28 28 29 29 30 31 31 31 31 31 30 28 27 25 25 25 24 24 23 23 24 25
34 34 35 38 41 44 46 46 46 46 45 45 44 44 43 44 44 44 44 44 44 44 44 43 42 42 40 40 40 40 40 39 38 37 37 37 37 37 37 37 37 37 36 35 35 35 34 33 33 33 33 35 37 38 36 34 33 33 32 32 31 31 29 28 28 28 29 29 29 29 30 30 30 30 30 28 26 25 24 24 24 24 23 23 24 25